Location: Unspecified
(48.2082°N, 0.0000°E)
Time: 16:16:51
(UTC+00:00)

S-56A Canister/Altair - Pass Details

Date: 22 August 2020
Orbit: 633 x 2499 km, 38.9° (Epoch: 23 September)

Event Time Altitude Azimuth Distance (km) Brightness Sun altitude
Exits shadow 03:58:53 13° 222° (SW) 1,976 9.0 -10.7°
Maximum altitude 04:02:34 30° 166° (SSE) 1,429 8.8 -10.2°
Drops below altitude 10° 04:08:04 10° 107° (ESE) 2,828 11.1 -9.4°
Sets 04:11:35 0° 98° (E) 4,091 12.2 -8.9°
